Location: ???? ?????
(44.6443°N, 135.1330°E)
Time: 23:58:54
(UTC+00:00)

Daily predictions for brighter satellites

Satellite Brightness Start Highest point End
(mag) Time Altitude Azimuth Time Altitude Azimuth Time Altitude Azimuth
CZ-4 R/B 4.4 12:02:23 10° W 12:02:45 10° W 12:03:07 10° W
Cosmos 1455 1.3 12:01:33 10° N 12:04:16 67° E 12:06:01 19° SSE
Okean O Rocket 2.7 12:01:38 10° SSW 12:05:39 40° W 12:09:44 10° NNW
ATLAS CENTAUR R/B 1.8 12:04:26 10° NNW 12:08:08 45° NE 12:10:46 17° ESE
RESURS DK-1 3.0 12:07:19 14° S 12:10:16 33° ESE 12:13:53 10° NE
In-Cosmos 22 4.3 12:05:59 10° S 12:11:44 84° W 12:17:25 10° N
Cosmos 2237 Rocket 2.4 12:09:16 10° NNW 12:14:55 73° WSW 12:19:38 15° SSE
PSLV R/B 3.7 12:15:19 22° SE 12:17:10 49° ENE 12:20:23 10° N
USA 305 2.3 12:15:07 10° SW 12:19:04 80° SE 12:22:33 10° NE
Cosmos 921 Rocket 2.9 12:16:14 10° SSW 12:20:27 88° ESE 12:24:48 10° NNE
Cosmos 2016 Rocket 4.5 12:19:04 10° N 12:25:12 49° ENE 12:29:33 19° SE
Meteor 2-10 Rocket 4.1 12:19:54 10° NNW 12:25:33 63° W 12:30:38 12° S
Meteor 1-22 Rocket 4.1 12:24:34 10° N 12:29:56 76° E 12:33:51 20° SSE
SL-8 R/B 4.2 12:26:42 10° WNW 12:31:27 61° NNE 12:36:10 10° E
Cosmos 1437 Rocket 2.7 12:30:19 25° SSE 12:32:05 52° E 12:35:35 10° NNE
SL-14 R/B 3.9 12:32:41 10° SSW 12:36:31 55° W 12:40:23 10° N
USA 276 2.2 12:37:04 10° WNW 12:38:43 33° SW 12:38:43 33° SW
Cosmos 1818 3.9 12:36:11 10° SW 12:41:36 71° NW 12:47:05 10° NNE
Cosmos 2297 Rocket 3.7 12:39:56 10° WSW 12:45:11 38° NW 12:50:28 10° NNE
Cosmos 2173 Rocket 4.2 12:43:43 10° NNW 12:49:52 69° W 12:54:35 17° S
Ariane Rocket 3.3 12:49:31 20° S 12:53:00 61° WSW 12:58:03 10° NNW
Meteor 1-12 Rocket 4.5 12:48:07 10° N 12:53:58 62° ENE 12:57:22 26° SSE
SPOT 3 Rocket 4.1 12:51:45 18° S 12:55:24 54° W 13:00:28 10° NNW
Cosmos 1864 Rocket 4.5 12:50:32 10° N 12:56:44 87° W 13:00:52 23° S
USA 290 2.8 12:58:10 38° ESE 12:58:10 38° ESE 13:01:09 10° NE
SL-4 R/B 2.6 12:59:04 34° SE 12:59:04 34° SE 13:02:30 10° ENE
Cosmos 1269 Rocket 4.1 12:59:05 25° S 13:02:01 58° ESE 13:07:13 10° NNE
Cosmos 1953 2.6 12:58:46 10° N 13:02:23 46° ENE 13:03:24 36° ESE
Cosmos 2233 Rocket 4.1 12:56:52 10° N 13:03:10 67° E 13:06:44 27° SSE
Lacrosse 4 Rocket 1.7 13:00:22 10° NW 13:04:31 58° WSW 13:06:10 33° S
Meteor 1-23 Rocket 4.2 13:04:30 19° SSW 13:08:37 82° W 13:14:15 10° N
SL-16 R/B 2.2 13:03:48 10° NNW 13:09:30 89° WSW 13:12:23 30° SSE
Cosmos 2228 Rocket 4.4 13:10:21 23° ESE 13:11:11 24° E 13:14:45 10° NE
COSMOS 2455 3.8 13:05:51 10° NW 13:11:21 38° WSW 13:14:48 20° SSW
Cosmos 1703 4.3 13:13:11 25° E 13:13:11 25° E 13:16:03 10° NE
Cosmos 2227 Rocket 3.2 13:08:11 10° SW 13:13:35 47° WNW 13:19:03 10° NNE
Meteor 1-21 4.2 13:10:45 23° S 13:14:26 88° E 13:20:13 10° N
Cosmos 1725 Rocket 4.2 13:08:18 10° NNW 13:14:34 71° W 13:18:34 24° S
Cosmos 1992 Rocket 4.5 13:10:20 10° NNW 13:15:22 51° WSW 13:17:59 26° SSW
GP-B 3.0 13:11:45 10° N 13:16:09 90° ESE 13:17:57 35° S
Cosmos 2263 Rocket 2.2 13:13:29 13° SSW 13:18:40 82° WNW 13:24:24 10° NNE
Meteor 1-16 Rocket 4.3 13:13:49 10° N 13:19:38 81° E 13:22:33 32° SSE
Cosmos 1707 Rocket 4.3 13:23:04 32° ESE 13:23:48 34° E 13:27:43 10° NNE
Terra 4.4 13:23:11 10° WSW 13:24:27 11° W 13:25:44 10° WNW
CZ-4C R/B 3.0 13:23:50 10° NNE 13:26:57 52° E 13:26:57 52° E
Cosmos 1933 Rocket 4.2 13:23:28 10° NNW 13:27:42 47° W 13:29:34 28° SSW
Cosmos 2084 Rocket 3.7 13:24:45 10° NW 13:28:47 52° WSW 13:29:39 43° SSW
Cosmos 1892 3.7 13:30:29 24° ENE 13:30:29 24° ENE 13:32:25 10° NNE
Cosmos 1943 3.7 13:25:53 10° NNW 13:31:27 51° ENE 13:34:17 27° ESE
IRIDIUM 106 4.4 13:29:33 37° SSE 13:31:31 62° E 13:36:40 10° N
ALOS 2 4.2 13:30:06 20° E 13:31:41 25° ENE 13:35:15 10° NNE
Landsat 5 4.4 13:30:15 10° NNE 13:34:03 31° E 13:34:23 31° ESE
Meteor 2-16 Rocket 4.4 13:32:35 27° SSW 13:36:07 83° W 13:42:15 10° N
Cosmos 2219 3.5 13:33:22 13° SW 13:38:24 67° WNW 13:44:10 10° NNE
Cosmos 1733 Rocket 3.3 13:34:56 10° N 13:39:15 55° ENE 13:40:16 43° SE
NOSS 3-1 (C) 4.4 13:33:32 10° NNW 13:40:34 59° NE 13:47:01 19° ESE
Cosmos 1869 Rocket 4.1 13:37:44 10° NNW 13:42:00 51° W 13:43:27 35° SSW
SeaSat 1 4.4 13:39:47 10° E 13:43:22 21° NE 13:47:03 10° N
ATLAS CENTAUR R/B 3.1 13:41:17 10° WNW 13:43:49 17° WSW 13:44:09 17° WSW
ASTEX 1 3.4 13:39:09 10° N 13:44:06 68° E 13:45:37 43° SSE
CZ-2C R/B 3.7 13:40:08 10° NNE 13:44:40 65° ESE 13:45:49 47° SSE
Cosmos 2082 3.9 13:44:08 20° SW 13:48:08 74° WNW 13:53:53 10° NNE
Cosmos 1763 Rocket 4.0 13:45:57 10° NNW 13:50:58 50° ENE 13:52:52 33° ESE
Cosmos 2292 Rocket 2.8 13:51:43 68° NNW 13:51:43 68° NNW 13:54:19 10° N
Cosmos 2061 Rocket 4.4 13:45:35 10° NNW 13:51:43 57° W 13:54:53 28° SSW
Okean 3 3.5 13:51:36 45° SW 13:52:42 67° W 13:56:47 10° N
Okean 2 3.6 13:53:46 45° SW 13:54:42 60° W 13:58:34 10° N
MetOp-A 3.7 14:01:42 49° S 14:03:01 84° WSW 14:07:38 10° NNW
Cosmos 2227 4.1 14:04:11 42° S 14:06:00 67° ESE 14:11:35 10° NNE
USA 234 4.1 14:01:30 10° ENE 14:06:59 28° SE 14:07:15 28° SE
Cosmos 1862 Rocket 3.5 14:06:29 53° SSW 14:07:29 82° W 14:11:56 10° N
Cosmos 1140 Rocket 4.1 14:07:29 22° SW 14:10:33 51° WNW 14:15:33 10° NNE
Cosmos 1513 Rocket 4.5 14:05:24 10° N 14:11:49 89° W 14:14:26 39° S
USA 307 4.2 14:15:00 24° E 14:15:00 24° E 14:16:53 10° ENE
SL-8 R/B 3.7 14:09:09 10° WNW 14:13:50 57° SSW 14:14:12 55° S
ARIANE 5 R/B 2.7 14:13:51 53° SSW 14:14:42 66° WSW 14:19:09 10° NNW
USA 59 Rocket 1.8 14:13:17 10° N 14:16:11 23° NE 14:19:13 12° E
Spot 4 3.8 14:15:39 52° SSE 14:16:50 90° WSW 14:21:42 10° NNW
Okean 1-7 2.7 14:17:57 69° S 14:18:25 88° E 14:22:35 10° N
SWAS 4.3 14:22:18 10° NNW 14:26:21 67° WSW 14:26:30 66° SW
Cosmos 1271 Rocket 2.8 14:27:15 56° ENE 14:27:15 56° ENE 14:30:31 10° NNE
Cosmos 1844 Rocket 2.6 14:26:47 45° S 14:28:35 77° ESE 14:34:17 10° NNE
NOSS 3-1 (A) 4.4 14:21:36 10° NNW 14:28:40 59° NE 14:35:51 15° ESE
ATLAS 2AS CENTAUR R/B 3.4 14:28:12 34° SE 14:29:53 38° ESE 14:36:14 10° NE
PSLV R/B 3.6 14:26:19 10° NNE 14:30:37 63° ESE 14:31:04 59° SE
Cosmos 1844 3.6 14:30:42 47° S 14:32:16 73° ESE 14:37:50 10° NNE
Cosmos 407 Rocket 3.8 14:30:32 33° SW 14:32:42 58° WNW 14:37:45 10° NNE
SJ 16-02 2.5 14:36:07 28° E 14:36:07 28° E 14:39:47 10° NE
SL-4 R/B 2.6 14:32:50 11° WSW 14:36:42 56° NNW 14:40:38 10° NE
Cosmos 1300 Rocket 4.5 14:34:03 10° N 14:38:11 38° ENE 14:39:05 34° ESE
Cosmos 2251 Rocket 3.5 14:37:13 44° SSW 14:38:57 81° WNW 14:44:20 10° NNE
Meteor 1-24 Rocket 4.0 14:42:57 42° SSE 14:44:48 60° E 14:50:39 10° NNE
Cosmos 1464 Rocket 4.1 14:39:12 10° NNW 14:45:27 69° W 14:47:39 41° SSW
PSLV R/B 3.9 14:44:26 10° NNE 14:48:18 60° E 14:48:18 60° E
Cosmos 1954 Rocket 3.9 14:47:09 53° S 14:48:20 75° ESE 14:53:33 10° NNE
Cosmos 2228 Rocket 4.4 14:47:43 27° WSW 14:49:06 33° WNW 14:53:08 10° N
Meteor 2-17 Rocket 4.5 14:50:00 43° SSE 14:51:58 68° E 14:57:59 10° NNE
Cosmos 2034 Rocket 3.9 14:45:52 10° N 14:52:08 90° W 14:54:22 43° S
BREEZE-M DEB (TANK) 3.7 14:43:04 10° SW 14:52:40 46° SSE 14:55:58 10° ENE
SL-16 R/B 4.3 14:50:14 10° WNW 14:52:42 13° W 14:54:14 12° WSW
Aureole 3 Rocket 3.8 14:49:51 10° NNW 14:52:29 31° W 14:52:29 31° W
Cosmos 1190 Rocket 4.0 14:51:44 46° SSW 14:53:19 79° WNW 14:58:38 10° NNE
Cosmos 1703 Rocket 3.4 14:54:19 68° SSW 14:54:49 82° W 14:59:09 10° N
Cosmos 540 Rocket 3.6 14:50:08 10° NNW 14:55:08 56° WSW 14:56:03 49° SW
Meteor 2-5 Rocket 3.9 14:55:35 45° SSE 14:57:25 71° E 15:03:22 10° NNE
Cosmos 1782 Rocket 3.8 14:53:40 10° N 14:58:03 60° E 14:58:47 52° ESE
MINOTAUR IV R/B 4.5 15:01:11 64° SE 15:01:30 67° ESE 15:05:53 10° NNE
Cosmos 468 Rocket 4.0 14:59:13 10° NNW 15:04:19 67° WSW 15:05:19 53° SSW
Cosmos 841 Rocket 3.8 15:00:39 10° NNW 15:05:52 63° ENE 15:07:43 39° SE
NOSS 2-1 (D) 3.9 15:02:42 10° NNW 15:06:16 56° NE 15:07:44 36° ESE
ALOS 2 3.5 15:07:30 33° WSW 15:07:51 34° W 15:11:52 10° NNW
Cosmos 1833 Rocket 4.1 15:06:19 10° N 15:11:23 33° NE 15:16:04 11° ESE
Cosmos 1943 4.4 15:10:30 10° NW 15:15:07 26° WSW 15:16:02 25° WSW
Cosmos 2344 4.4 15:08:39 10° NW 15:16:52 53° WSW 15:22:12 31° S
SeaSat 1 2.4 15:19:25 54° S 15:20:21 67° WSW 15:25:15 10° NNW
Cosmos 1634 Rocket 3.9 15:18:22 10° N 15:24:41 88° ENE 15:27:04 41° S
Cosmos 2242 Rocket 3.9 15:24:58 48° SE 15:25:41 55° E 15:30:03 10° NNE
CZ-2C R/B 3.8 15:25:58 10° NNE 15:31:07 42° E 15:32:41 34° SE
Cosmos 1603 4.4 15:27:25 10° NW 15:32:28 35° WSW 15:33:20 33° SW
NOSS 2-1 (C) 3.3 15:30:37 10° NW 15:34:18 85° SW 15:35:03 61° SSE
H-2A R/B 2.9 15:34:30 39° E 15:35:07 43° ENE 15:38:35 10° N
NOSS 2-1 (E) 3.3 15:33:45 10° NW 15:37:28 89° WSW 15:38:27 54° SE
Cosmos 968 Rocket 3.5 15:38:36 48° SSE 15:39:55 67° ESE 15:45:07 10° NNE
Cosmos 1606 2.8 15:39:12 10° N 15:41:35 51° NNW 15:41:35 51° NNW
USA 307 3.8 15:41:31 25° W 15:43:18 41° NNW 15:47:05 10° NE
Cosmos 2278 Rocket 3.8 15:42:00 19° SE 15:43:58 23° E 15:48:16 10° NE
CZ-2C R/B 2.8 15:47:15 34° SE 15:49:31 69° ENE 15:54:48 10° N
USA 234 3.2 15:43:54 10° NE 15:50:28 87° NW 15:54:34 25° SW
Cosmos 1943 Rocket 3.7 15:50:11 19° SE 15:52:10 23° ESE 15:56:23 10° NE
SL-12 R/B(2) 4.3 15:48:38 28° SW 15:53:29 84° NW 16:03:14 10° NE
Cosmos 1674 Rocket 4.2 15:56:29 38° SE 15:57:32 46° E 16:01:41 10° NNE
CZ-2D R/B 4.5 15:55:27 10° ENE 15:57:47 13° E 16:00:05 10° ESE
Nadezhda 4 Rocket 4.4 15:55:23 30° SSE 15:58:20 55° E 16:04:25 10° NNE
Landsat 4 3.6 16:00:59 55° N 16:00:59 55° N 16:03:21 10° NNW
STPSAT 2 (USA 217) 4.5 16:01:24 55° SSW 16:02:21 87° WNW 16:06:49 10° NNE
USA 59 Rocket 0.5 16:01:31 10° NW 16:05:03 42° WSW 16:05:03 42° WSW
ATLAS 3B R/B 3.2 15:59:02 10° NW 16:06:56 70° NE 16:14:29 10° SE
Cosmos 1741 Rocket 4.0 16:05:20 42° SSW 16:07:10 81° WNW 16:12:30 10° NNE
Cosmos 371 Rocket 3.3 16:07:11 45° SW 16:08:37 72° WNW 16:13:28 10° NNE
SJ 16-02 2.8 16:12:41 23° W 16:14:10 28° WNW 16:17:56 10° N
SL-4 R/B 3.9 16:11:40 10° WNW 16:15:15 29° N 16:18:41 10° ENE
Cosmos 2151 Rocket 3.6 16:12:26 10° N 16:16:54 79° E 16:18:25 40° SSE
In-Cosmos 22 Rocket 4.2 16:15:52 36° S 16:18:16 79° E 16:24:02 10° NNE
Okean 2 Rocket 3.3 16:15:27 10° N 16:19:56 69° E 16:21:44 35° SSE
ATLAS 2AS CENTAUR R/B 3.3 16:15:35 19° WSW 16:20:38 54° NW 16:27:25 10° NNE
Nimbus 7 Rocket 4.4 16:19:50 10° NNE 16:25:46 84° WNW 16:28:38 33° SSW
Okean 1 Rocket 3.3 16:26:35 10° N 16:31:03 69° E 16:33:10 30° SSE
ADEOS II 4.3 16:27:47 10° NE 16:31:14 18° E 16:34:40 10° SE
Cosmos 1025 Rocket 3.0 16:33:21 39° S 16:34:49 72° E 16:39:04 10° NNE
Cosmos 1378 Rocket 4.0 16:35:49 36° SW 16:37:06 48° WNW 16:41:23 10° N
Cosmos 158 Rocket 4.2 16:32:37 10° NNW 16:37:41 64° ENE 16:41:52 14° SSE
FENGYUN 3A 4.3 16:40:07 10° NNE 16:45:19 47° E 16:48:42 21° SSE
Cosmos 1975 Rocket 4.4 16:47:08 16° SSE 16:50:06 34° E 16:54:06 10° NNE
Cosmos 1428 Rocket 4.4 16:49:59 28° SSW 16:53:24 74° W 16:59:31 10° N
MOZ.5/SAFIR/RUBIN 5/SL-8 3.7 16:50:53 22° SSE 16:53:52 82° ENE 16:58:28 10° NNW
Cosmos 1833 Rocket 3.1 16:50:07 10° NW 16:55:22 41° WSW 16:57:41 28° SSW
IDEFIX/ARIANE 42P 2.5 16:50:33 10° NNE 16:55:49 85° WNW 16:58:40 28° SSW
MSX 3.8 16:50:04 10° NNE 16:55:50 88° ESE 16:59:14 26° SSW
SL-24 R/B - RUBIN 2 3.7 16:51:48 10° NW 16:56:33 57° WSW 16:59:00 25° S
Cosmos 1340 Rocket 3.3 16:53:35 10° NNW 16:57:11 39° W 16:57:58 35° SW
Cosmos 1814 Rocket 4.3 16:53:00 10° NNW 16:58:10 51° WSW 17:00:49 27° SSW
Meteor 1-11 4.3 17:00:09 26° SSW 17:03:28 76° W 17:09:19 10° N
NPP 3.6 17:01:52 10° NNE 17:07:17 81° WNW 17:10:35 24° SSW
H-2A R/B 4.3 17:09:52 13° W 17:09:52 13° W 17:11:29 10° WNW
CZ-2C R/B 4.4 17:06:06 10° N 17:10:40 28° WNW 17:13:40 17° WSW
H-2A R/B 1.8 17:08:34 10° NNE 17:12:35 85° WNW 17:14:38 28° SSW
Timation 2 Rocket 4.5 17:09:06 20° WSW 17:12:59 47° NW 17:18:46 10° NNE
USA 229 DEB 4.0 17:06:20 10° NW 17:13:50 67° WSW 17:21:56 10° SSE
USA 229 4.0 17:06:26 10° NW 17:13:56 68° WSW 17:22:03 10° SSE
COSMOS 2406 4.4 17:08:51 10° NNW 17:14:23 45° ENE 17:19:51 10° SE
ATLAS 5 CENTAUR R/B 2.5 17:15:08 17° SSE 17:16:20 21° ESE 17:18:50 10° ENE
Cosmos 2221 Rocket 4.5 17:14:56 24° WSW 17:16:51 35° WNW 17:20:54 10° N
Cosmos 1455 Rocket 2.9 17:13:12 10° N 17:17:34 83° W 17:20:39 19° S
SL-16 R/B 4.1 17:13:47 10° SE 17:19:17 35° ENE 17:24:51 10° N
Cosmos 220 Rocket 4.5 17:19:45 10° NNW 17:23:52 58° ENE 17:27:59 10° SSE
Cosmos 2082 Rocket 2.3 17:19:19 10° NNW 17:25:03 83° ENE 17:30:46 10° SSE
Resurs 1-4 Rocket 2.2 17:19:58 10° NNE 17:25:14 79° ESE 17:29:19 17° S
Cosmos 2278 Rocket 2.5 17:23:49 21° SW 17:27:35 57° WNW 17:33:10 10° NNE
Cosmos 1486 Rocket 4.4 17:23:49 16° S 17:27:47 57° ESE 17:32:55 10° NNE
Cosmos 332 Rocket 4.5 17:25:13 21° SW 17:28:06 42° WNW 17:32:42 10° N
CZ-2C R/B 4.3 17:28:43 14° WSW 17:30:17 16° W 17:33:30 10° NW
USA 234 4.4 17:27:07 10° NE 17:33:04 39° NNW 17:39:00 10° W
Cosmos 1943 Rocket 2.5 17:31:40 19° SW 17:35:28 54° WNW 17:40:54 10° NNE
SAR-Lupe-3 4.2 17:33:36 13° SSE 17:36:07 73° ENE 17:39:03 10° N
CZ-2D R/B 2.1 17:33:02 10° NNE 17:38:28 88° WNW 17:42:55 15° SSW
Cosmos 1515 2.6 17:37:05 10° NNW 17:39:48 77° W 17:41:26 21° S
Cosmos 1553 Rocket 3.9 17:34:51 10° N 17:40:57 87° W 17:47:04 10° S
Cosmos 2228 3.1 17:37:52 10° N 17:41:59 72° E 17:46:06 10° SSE
Cosmos 1812 3.3 17:43:21 10° NNW 17:46:08 28° W 17:47:25 21° SW
SL-4 R/B 3.4 17:50:13 10° NW 17:53:55 38° NNE 17:57:25 10° E
Cosmos 2098 Rocket 2.6 17:50:30 10° NNW 17:54:11 55° W 17:56:50 14° S
ALOS 2.2 17:51:54 10° NNE 17:56:29 86° WNW 18:00:49 11° SSW
ATLAS 3B R/B 3.7 17:50:35 10° NW 17:57:09 31° WSW 18:03:27 10° SSW
USA 281 3.8 17:51:28 10° NNE 17:57:53 52° ESE 18:04:16 10° S
Cosmos 1544 Rocket 3.5 17:57:10 10° N 18:01:29 90° NE 18:05:46 10° S
CZ-2C R/B 4.5 17:59:55 10° NE 18:03:30 22° E 18:07:08 10° SE
Cosmos 1503 Rocket 4.1 17:59:20 10° SSW 18:04:31 78° ESE 18:09:46 10° NNE
Cosmos 2369 Rocket 3.3 17:59:23 10° S 18:04:40 40° ESE 18:09:58 10° NE
NOAA 11 4.2 17:59:23 10° NNE 18:04:55 80° WNW 18:10:23 10° SSW
Cosmos 2266 Rocket 4.1 17:59:45 10° S 18:05:51 79° E 18:12:08 10° N
AQUA 3.9 18:04:17 10° NNE 18:09:00 78° ESE 18:13:40 10° S
ADEOS II 2.2 18:06:04 10° N 18:11:14 64° WNW 18:16:24 10° SSW
USA 305 0.0 18:14:09 10° NW 18:15:24 47° NNE 18:15:51 18° ESE
Cosmos 2208 Rocket 4.3 18:12:33 10° NNW 18:17:28 45° WSW 18:22:21 10° S
NOSS 3-3 (A) 3.9 18:15:33 10° SSW 18:20:42 70° ESE 18:26:46 10° NE
Cosmos 773 Rocket 4.2 18:18:23 10° NNW 18:23:25 51° WSW 18:28:26 10° S
Cosmos 990 Rocket 4.4 18:23:45 10° S 18:28:47 61° ESE 18:33:51 10° NNE
Cosmos 2084 3.2 18:32:13 10° NW 18:36:11 90° NE 18:40:04 10° SE
DMSP B5D2-2 4.3 18:32:20 10° S 18:37:27 52° W 18:42:36 10° NNW
Atlas Centaur 2 4.2 18:35:38 10° SW 18:41:57 25° SSE 18:48:06 10° ESE
BREEZE-M DEB 4.4 18:35:48 10° WSW 18:49:25 65° NNW 18:53:09 10° ENE
